Notices

What's New in latest Release from April 7th, 2021:

- Updated Glossary, including Speed of Maximum Gust, and Total Hourly Precipitation

- Updated national and regional climate services offices contacts and prices information

- Addition of station inventory lists for 1981-2010, 1971-2000, and 1961-1990 Normals.

If you haven't already, please take our survey and provide feedback about our website: https://eccc.sondage-survey.ca/f/LanguageSelection.aspx?s=442ca660-fcf1-47c0-95a9-59707d6fd709

Hourly Data Report for April 16, 2018

MIRAMICHI RCS
NEW BRUNSWICK
Current Station Operator: ECCC - MSC

47°00'34.000" N
65°27'54.000" W
33.00 m
8100989
71744
ACQ

Download Data

Hourly Data (April 2018)
Hourly Data Report for April 16, 2018
TIME
LST
Temp Definition
°C
Dew Point Definition
°C
Rel Hum Definition
%
Precip. Amount Definition
mm

Wind Dir Definition
10's deg

Wind Spd Definition
km/h
Visibility Definition
km
Stn Press Definition
kPa
Hmdx Definition


Wind Chill Definition


Weather Definition


00:00 -5.7 -11.2 65 0.0 3 5   103.36   -8 LegendNANA
01:00 -7.6 -11.0 77 0.0 6 1   103.38   -8 LegendNANA
02:00 -8.4 -11.8 76 0.0   0   103.33     LegendNANA
03:00 -8.4 -11.3 80 0.0 6 5   103.32   -11 LegendNANA
04:00 -8.8 -10.8 85 0.0 26 3   103.31   -10 LegendNANA
05:00 -9.1 -11.2 85 0.0 25 3   103.28   -11 LegendNANA
06:00 -9.3 -11.5 84 0.0   0   103.28     LegendNANA
07:00 -7.9 -10.5 81 0.0 28 3   103.27   -9 LegendNANA
08:00 -5.3 -9.0 75 0.0 6 4   103.22   -7 LegendNANA
09:00 -1.8 -8.9 58 0.0 9 10   103.15   -5 LegendNANA
10:00 -0.6 -7.4 60 0.0 7 12   103.09   -5 LegendNANA
11:00 0.3 -5.9 63 0.0 7 15   103.03     LegendNANA
12:00 0.4 -5.3 65 0.0 7 14   102.94     LegendNANA
13:00 0.1 -4.8 70 0.0 4 16   102.86     LegendNANA
14:00 0.7 -3.8 72 0.0 6 15   102.74     LegendNANA
15:00 -0.1 -3.8 76 0.0 5 19   102.61   -5 LegendNANA
16:00 -0.3 -3.4 80 0.0 6 19   102.55   -5 LegendNANA
17:00 -0.3 -2.9 83 0.0 6 18   102.39   -5 LegendNANA
18:00 -0.5 -2.6 86 0.0 6 17   102.32   -5 LegendNANA
19:00 -0.5 -2.9 84 0.0 6 13   102.27   -5 LegendNANA
20:00 -0.6 -2.8 85 0.0 6 13   102.16   -5 LegendNANA
21:00 -0.4 -3.1 82 0.0 6 13   102.06   -5 LegendNANA
22:00 0.1 -3.5 77 0.0 8 15   101.95     LegendNANA
23:00 0.3 -3.7 75 0.0 8 18   101.82     LegendNANA

Notes on Data Quality.

Legend

  • E = Estimated
  • M = Missing
  • NA = Not Available*
  • [empty] = Indicates an unobserved value
Date modified: